Year,Month,Day,Hour,Minute,Value (Times are PST for temperature in C)
2008,06,01,00,00,12.30
2008,06,01,00,01,12.20
2008,06,01,00,02,12.20
2008,06,01,00,03,12.20
2008,06,01,00,04,12.20
2008,06,01,00,05,12.20
2008,06,01,00,06,12.20
2008,06,01,00,07,12.20
2008,06,01,00,08,12.20
2008,06,01,00,09,12.20
2008,06,01,00,10,12.20
2008,06,01,00,11,12.20
2008,06,01,00,12,12.20
2008,06,01,00,13,12.30
2008,06,01,00,14,12.30
2008,06,01,00,15,12.30
2008,06,01,00,16,12.30
2008,06,01,00,17,12.30
2008,06,01,00,18,12.30
2008,06,01,00,19,12.30
2008,06,01,00,20,12.30
2008,06,01,00,21,12.30
2008,06,01,00,22,12.30
2008,06,01,00,23,12.30
2008,06,01,00,24,12.30
2008,06,01,00,25,12.30
2008,06,01,00,26,12.30
2008,06,01,00,27,12.40
2008,06,01,00,28,12.40
2008,06,01,00,29,12.40
2008,06,01,00,30,12.40
2008,06,01,00,31,12.40
2008,06,01,00,32,12.40
2008,06,01,00,33,12.40
2008,06,01,00,34,12.40
2008,06,01,00,35,12.40
2008,06,01,00,36,12.50
2008,06,01,00,37,12.50
2008,06,01,00,38,12.50
2008,06,01,00,39,12.50
2008,06,01,00,40,12.60
2008,06,01,00,41,12.60
2008,06,01,00,42,12.60
2008,06,01,00,43,12.60
2008,06,01,00,44,12.60
2008,06,01,00,45,12.60
2008,06,01,00,46,12.60
2008,06,01,00,47,12.60
2008,06,01,00,48,12.60
2008,06,01,00,49,12.60
2008,06,01,00,50,12.60
2008,06,01,00,51,12.60
2008,06,01,00,52,12.60
2008,06,01,00,53,12.60
2008,06,01,00,54,12.70
2008,06,01,00,55,12.70
2008,06,01,00,56,12.70
2008,06,01,00,57,12.70
2008,06,01,00,58,12.70
2008,06,01,00,59,12.70
2008,06,01,01,00,12.70
2008,06,01,01,01,12.70
2008,06,01,01,02,12.70
2008,06,01,01,03,12.70
2008,06,01,01,04,12.70
2008,06,01,01,05,12.80
2008,06,01,01,06,12.80
2008,06,01,01,07,12.80
2008,06,01,01,08,12.80
2008,06,01,01,09,12.80
2008,06,01,01,10,12.80
2008,06,01,01,11,12.80
2008,06,01,01,12,12.80
2008,06,01,01,13,12.80
2008,06,01,01,14,12.80
2008,06,01,01,15,12.80
2008,06,01,01,16,12.80
2008,06,01,01,17,12.80
2008,06,01,01,18,12.80
2008,06,01,01,19,12.80
2008,06,01,01,20,12.80
2008,06,01,01,21,12.80
2008,06,01,01,22,12.80
2008,06,01,01,23,12.80
2008,06,01,01,24,12.80
2008,06,01,01,25,12.70
2008,06,01,01,26,12.70
2008,06,01,01,27,12.70
2008,06,01,01,28,12.70
2008,06,01,01,29,12.70
2008,06,01,01,30,12.70
2008,06,01,01,31,12.60
2008,06,01,01,32,12.60
2008,06,01,01,33,12.60
2008,06,01,01,34,12.60
2008,06,01,01,35,12.60
2008,06,01,01,36,12.60
2008,06,01,01,37,12.50
2008,06,01,01,38,12.50
2008,06,01,01,39,12.50
2008,06,01,01,40,12.50
2008,06,01,01,41,12.50
2008,06,01,01,42,12.50
2008,06,01,01,43,12.50
2008,06,01,01,44,12.40
2008,06,01,01,45,12.40
2008,06,01,01,46,12.40
2008,06,01,01,47,12.40
2008,06,01,01,48,12.40
2008,06,01,01,49,12.40
2008,06,01,01,50,12.30
2008,06,01,01,51,12.30
2008,06,01,01,52,12.30
2008,06,01,01,53,12.30
2008,06,01,01,54,12.30
2008,06,01,01,55,12.30
2008,06,01,01,56,12.30
2008,06,01,01,57,12.30
2008,06,01,01,58,12.30
2008,06,01,01,59,12.30
2008,06,01,02,00,12.30
2008,06,01,02,01,12.30
2008,06,01,02,02,12.30
2008,06,01,02,03,12.30
2008,06,01,02,04,12.30
2008,06,01,02,05,12.30
2008,06,01,02,06,12.30
2008,06,01,02,07,12.30
2008,06,01,02,08,12.30
2008,06,01,02,09,12.30
2008,06,01,02,10,12.30
2008,06,01,02,11,12.30
2008,06,01,02,12,12.30
2008,06,01,02,13,12.30
2008,06,01,02,14,12.30
2008,06,01,02,15,12.30
2008,06,01,02,16,12.30
2008,06,01,02,17,12.30
2008,06,01,02,18,12.30
2008,06,01,02,19,12.30
2008,06,01,02,20,12.30
2008,06,01,02,21,12.30
2008,06,01,02,22,12.30
2008,06,01,02,23,12.30
2008,06,01,02,24,12.30
2008,06,01,02,25,12.20
2008,06,01,02,26,12.20
2008,06,01,02,27,12.20
2008,06,01,02,28,12.20
2008,06,01,02,29,12.20
2008,06,01,02,30,12.20
2008,06,01,02,31,12.10
2008,06,01,02,32,12.10
2008,06,01,02,33,12.10
2008,06,01,02,34,12.10
2008,06,01,02,35,12.10
2008,06,01,02,36,12.00
2008,06,01,02,37,12.00
2008,06,01,02,38,12.00
2008,06,01,02,39,12.00
2008,06,01,02,40,12.00
2008,06,01,02,41,12.00
2008,06,01,02,42,12.00
2008,06,01,02,43,12.00
2008,06,01,02,44,12.00
2008,06,01,02,45,12.00
2008,06,01,02,46,12.00
2008,06,01,02,47,12.00
2008,06,01,02,48,12.00
2008,06,01,02,49,12.00
2008,06,01,02,50,12.00
2008,06,01,02,51,11.90
2008,06,01,02,52,11.90
2008,06,01,02,53,11.90
2008,06,01,02,54,11.90
2008,06,01,02,55,11.90
2008,06,01,02,56,11.80
2008,06,01,02,57,11.80
2008,06,01,02,58,11.80
2008,06,01,02,59,11.80
2008,06,01,03,00,11.80
2008,06,01,03,01,11.80
2008,06,01,03,02,11.70
2008,06,01,03,03,11.70
2008,06,01,03,04,11.70
2008,06,01,03,05,11.70
2008,06,01,03,06,11.60
2008,06,01,03,07,11.60
2008,06,01,03,08,11.60
2008,06,01,03,09,11.60
2008,06,01,03,10,11.60
2008,06,01,03,11,11.60
2008,06,01,03,12,11.60
2008,06,01,03,13,11.50
2008,06,01,03,14,11.50
2008,06,01,03,15,11.50
2008,06,01,03,16,11.40
2008,06,01,03,17,11.40
2008,06,01,03,18,11.40
2008,06,01,03,19,11.40
2008,06,01,03,20,11.40
2008,06,01,03,21,11.40
2008,06,01,03,22,11.40
2008,06,01,03,23,11.40
2008,06,01,03,24,11.40
2008,06,01,03,25,11.40
2008,06,01,03,26,11.40
2008,06,01,03,27,11.40
2008,06,01,03,28,11.30
2008,06,01,03,29,11.30
2008,06,01,03,30,11.30
2008,06,01,03,31,11.40
2008,06,01,03,32,11.40
2008,06,01,03,33,11.40
2008,06,01,03,34,11.40
2008,06,01,03,35,11.50
2008,06,01,03,36,11.50
2008,06,01,03,37,11.60
2008,06,01,03,38,11.60
2008,06,01,03,39,11.60
2008,06,01,03,40,11.60
2008,06,01,03,41,11.60
2008,06,01,03,42,11.60
2008,06,01,03,43,11.60
2008,06,01,03,44,11.60
2008,06,01,03,45,11.50
2008,06,01,03,46,11.60
2008,06,01,03,47,11.50
2008,06,01,03,48,11.50
2008,06,01,03,49,11.60
2008,06,01,03,50,11.60
2008,06,01,03,51,11.50
2008,06,01,03,52,11.50
2008,06,01,03,53,11.40
2008,06,01,03,54,11.40
2008,06,01,03,55,11.40
2008,06,01,03,56,11.50
2008,06,01,03,57,11.50
2008,06,01,03,58,11.60
2008,06,01,03,59,11.50
2008,06,01,04,00,11.50
2008,06,01,04,01,11.50
2008,06,01,04,02,11.60
2008,06,01,04,03,11.60
2008,06,01,04,04,11.60
2008,06,01,04,05,11.60
2008,06,01,04,06,11.60
2008,06,01,04,07,11.60
2008,06,01,04,08,11.60
2008,06,01,04,09,11.60
2008,06,01,04,10,11.60
2008,06,01,04,11,11.70
2008,06,01,04,12,11.70
2008,06,01,04,13,11.70
2008,06,01,04,14,11.70
2008,06,01,04,15,11.70
2008,06,01,04,16,11.70
2008,06,01,04,17,11.70
2008,06,01,04,18,11.70
2008,06,01,04,19,11.70
2008,06,01,04,20,11.80
2008,06,01,04,21,11.80
2008,06,01,04,22,11.80
2008,06,01,04,23,11.80
2008,06,01,04,24,11.80
2008,06,01,04,25,11.80
2008,06,01,04,26,11.80
2008,06,01,04,27,11.80
2008,06,01,04,28,11.90
2008,06,01,04,29,11.80
2008,06,01,04,30,11.80
2008,06,01,04,31,11.80
2008,06,01,04,32,11.80
2008,06,01,04,33,11.80
2008,06,01,04,34,11.80
2008,06,01,04,35,11.80
2008,06,01,04,36,11.80
2008,06,01,04,37,11.80
2008,06,01,04,38,11.80
2008,06,01,04,39,11.70
2008,06,01,04,40,11.60
2008,06,01,04,41,11.50
2008,06,01,04,42,11.40
2008,06,01,04,43,11.30
2008,06,01,04,44,11.20
2008,06,01,04,45,11.10
2008,06,01,04,46,11.00
2008,06,01,04,47,10.80
2008,06,01,04,48,10.80
2008,06,01,04,49,10.70
2008,06,01,04,50,10.60
2008,06,01,04,51,10.50
2008,06,01,04,52,10.50
2008,06,01,04,53,10.40
2008,06,01,04,54,10.40
2008,06,01,04,55,10.30
2008,06,01,04,56,10.30
2008,06,01,04,57,10.20
2008,06,01,04,58,10.20
2008,06,01,04,59,10.20
2008,06,01,05,00,10.20
2008,06,01,05,01,10.10
2008,06,01,05,02,10.10
2008,06,01,05,03,10.10
2008,06,01,05,04,10.10
2008,06,01,05,05,10.10
2008,06,01,05,06,10.10
2008,06,01,05,07,10.10
2008,06,01,05,08,10.10
2008,06,01,05,09,10.10
2008,06,01,05,10,10.10
2008,06,01,05,11,10.10
2008,06,01,05,12,10.10
2008,06,01,05,13,10.10
2008,06,01,05,14,10.10
2008,06,01,05,15,10.10
2008,06,01,05,16,10.10
2008,06,01,05,17,10.10
2008,06,01,05,18,10.10
2008,06,01,05,19,10.10
2008,06,01,05,20,10.10
2008,06,01,05,21,10.10
2008,06,01,05,22,10.10
2008,06,01,05,23,10.20
2008,06,01,05,24,10.20
2008,06,01,05,25,10.20
2008,06,01,05,26,10.20
2008,06,01,05,27,10.30
2008,06,01,05,28,10.30
2008,06,01,05,29,10.30
2008,06,01,05,30,10.30
2008,06,01,05,31,10.30
2008,06,01,05,32,10.30
2008,06,01,05,33,10.30
2008,06,01,05,34,10.30
2008,06,01,05,35,10.30
2008,06,01,05,36,10.30
2008,06,01,05,37,10.30
2008,06,01,05,38,10.30
2008,06,01,05,39,10.30
2008,06,01,05,40,10.30
2008,06,01,05,41,10.30
2008,06,01,05,42,10.30
2008,06,01,05,43,10.30
2008,06,01,05,44,10.30
2008,06,01,05,45,10.30
2008,06,01,05,46,10.30
2008,06,01,05,47,10.30
2008,06,01,05,48,10.30
2008,06,01,05,49,10.30
2008,06,01,05,50,10.30
2008,06,01,05,51,10.30
2008,06,01,05,52,10.30
2008,06,01,05,53,10.30
2008,06,01,05,54,10.30
2008,06,01,05,55,10.30
2008,06,01,05,56,10.30
2008,06,01,05,57,10.30
2008,06,01,05,58,10.30
2008,06,01,05,59,10.20
2008,06,01,06,00,10.10
2008,06,01,06,01,10.10
2008,06,01,06,02,10.00
2008,06,01,06,03,9.90
2008,06,01,06,04,9.90
2008,06,01,06,05,9.80
2008,06,01,06,06,9.80
2008,06,01,06,07,9.70
2008,06,01,06,08,9.60
2008,06,01,06,09,9.50
2008,06,01,06,10,9.50
2008,06,01,06,11,9.40
2008,06,01,06,12,9.40
2008,06,01,06,13,9.30
2008,06,01,06,14,9.30
2008,06,01,06,15,9.30
2008,06,01,06,16,9.30
2008,06,01,06,17,9.30
2008,06,01,06,18,9.30
2008,06,01,06,19,9.30
2008,06,01,06,20,9.30
2008,06,01,06,21,9.30
2008,06,01,06,22,9.30
2008,06,01,06,23,9.40
2008,06,01,06,24,9.40
2008,06,01,06,25,9.40
2008,06,01,06,26,9.40
2008,06,01,06,27,9.40
2008,06,01,06,28,9.40
2008,06,01,06,29,9.40
2008,06,01,06,30,9.40
2008,06,01,06,31,9.40
2008,06,01,06,32,9.50
2008,06,01,06,33,9.50
2008,06,01,06,34,9.50
2008,06,01,06,35,9.50
2008,06,01,06,36,9.60
2008,06,01,06,37,9.60
2008,06,01,06,38,9.60
2008,06,01,06,39,9.60
2008,06,01,06,40,9.60
2008,06,01,06,41,9.60
2008,06,01,06,42,9.60
2008,06,01,06,43,9.70
2008,06,01,06,44,9.70
2008,06,01,06,45,9.80
2008,06,01,06,46,9.80
2008,06,01,06,47,9.80
2008,06,01,06,48,9.90
2008,06,01,06,49,9.90
2008,06,01,06,50,10.00
2008,06,01,06,51,10.00
2008,06,01,06,52,10.10
2008,06,01,06,53,10.20
2008,06,01,06,54,10.20
2008,06,01,06,55,10.20
2008,06,01,06,56,10.20
2008,06,01,06,57,10.30
2008,06,01,06,58,10.30
2008,06,01,06,59,10.30
2008,06,01,07,00,10.30
2008,06,01,07,01,10.30
2008,06,01,07,02,10.30
2008,06,01,07,03,10.30
2008,06,01,07,04,10.30
2008,06,01,07,05,10.30
2008,06,01,07,06,10.30
2008,06,01,07,07,10.30
2008,06,01,07,08,10.30
2008,06,01,07,09,10.30
2008,06,01,07,10,10.30
2008,06,01,07,11,10.40
2008,06,01,07,12,10.40
2008,06,01,07,13,10.40
2008,06,01,07,14,10.40
2008,06,01,07,15,10.40
2008,06,01,07,16,10.50
2008,06,01,07,17,10.50
2008,06,01,07,18,10.50
2008,06,01,07,19,10.60
2008,06,01,07,20,10.60
2008,06,01,07,21,10.60
2008,06,01,07,22,10.60
2008,06,01,07,23,10.60
2008,06,01,07,24,10.60
2008,06,01,07,25,10.60
2008,06,01,07,26,10.60
2008,06,01,07,27,10.60
2008,06,01,07,28,10.70
2008,06,01,07,29,10.70
2008,06,01,07,30,10.70
2008,06,01,07,31,10.70
2008,06,01,07,32,10.70
2008,06,01,07,33,10.80
2008,06,01,07,34,10.80
2008,06,01,07,35,10.80
2008,06,01,07,36,10.80
2008,06,01,07,37,10.80
2008,06,01,07,38,10.80
2008,06,01,07,39,10.80
2008,06,01,07,40,10.80
2008,06,01,07,41,10.80
2008,06,01,07,42,10.80
2008,06,01,07,43,10.90
2008,06,01,07,44,10.90
2008,06,01,07,45,10.90
2008,06,01,07,46,11.00
2008,06,01,07,47,11.00
2008,06,01,07,48,11.00
2008,06,01,07,49,11.10
2008,06,01,07,50,11.10
2008,06,01,07,51,11.10
2008,06,01,07,52,11.10
2008,06,01,07,53,11.20
2008,06,01,07,54,11.20
2008,06,01,07,55,11.20
2008,06,01,07,56,11.30
2008,06,01,07,57,11.30
2008,06,01,07,58,11.30
2008,06,01,07,59,11.30
2008,06,01,08,00,11.40
2008,06,01,08,01,11.40
2008,06,01,08,02,11.50
2008,06,01,08,03,11.50
2008,06,01,08,04,11.60
2008,06,01,08,05,11.60
2008,06,01,08,06,11.60
2008,06,01,08,07,11.60
2008,06,01,08,08,11.60
2008,06,01,08,09,11.70
2008,06,01,08,10,11.70
2008,06,01,08,11,11.70
2008,06,01,08,12,11.70
2008,06,01,08,13,11.70
2008,06,01,08,14,11.80
2008,06,01,08,15,11.80
2008,06,01,08,16,11.80
2008,06,01,08,17,11.80
2008,06,01,08,18,11.80
2008,06,01,08,19,11.80
2008,06,01,08,20,11.90
2008,06,01,08,21,11.90
2008,06,01,08,22,11.90
2008,06,01,08,23,11.90
2008,06,01,08,24,12.00
2008,06,01,08,25,12.00
2008,06,01,08,26,12.00
2008,06,01,08,27,12.10
2008,06,01,08,28,12.10
2008,06,01,08,29,12.10
2008,06,01,08,30,12.10
2008,06,01,08,31,12.10
2008,06,01,08,32,12.10
2008,06,01,08,33,12.10
2008,06,01,08,34,12.10
2008,06,01,08,35,12.10
2008,06,01,08,36,12.10
2008,06,01,08,37,12.10
2008,06,01,08,38,12.10
2008,06,01,08,39,12.10
2008,06,01,08,40,12.10
2008,06,01,08,41,12.20
2008,06,01,08,42,12.20
2008,06,01,08,43,12.20
2008,06,01,08,44,12.20
2008,06,01,08,45,12.20
2008,06,01,08,46,12.20
2008,06,01,08,47,12.30
2008,06,01,08,48,12.30
2008,06,01,08,49,12.30
2008,06,01,08,50,12.30
2008,06,01,08,51,12.30
2008,06,01,08,52,12.30
2008,06,01,08,53,12.40
2008,06,01,08,54,12.40
2008,06,01,08,55,12.40
2008,06,01,08,56,12.40
2008,06,01,08,57,12.40
2008,06,01,08,58,12.50
2008,06,01,08,59,12.50
2008,06,01,09,00,12.50
2008,06,01,09,01,12.50
2008,06,01,09,02,12.50
2008,06,01,09,03,12.60
2008,06,01,09,04,12.60
2008,06,01,09,05,12.60
2008,06,01,09,06,12.60
2008,06,01,09,07,12.60
2008,06,01,09,08,12.70
2008,06,01,09,09,12.70
2008,06,01,09,10,12.70
2008,06,01,09,11,12.70
2008,06,01,09,12,12.70
2008,06,01,09,13,12.70
2008,06,01,09,14,12.70
2008,06,01,09,15,12.70
2008,06,01,09,16,12.70
2008,06,01,09,17,12.70
2008,06,01,09,18,12.70
2008,06,01,09,19,12.70
2008,06,01,09,20,12.70
2008,06,01,09,21,12.70
2008,06,01,09,22,12.70
2008,06,01,09,23,12.70
2008,06,01,09,24,12.70
2008,06,01,09,25,12.70
2008,06,01,09,26,12.80
2008,06,01,09,27,12.80
2008,06,01,09,28,12.80
2008,06,01,09,29,12.70
2008,06,01,09,30,12.80
2008,06,01,09,31,12.80
2008,06,01,09,32,12.80
2008,06,01,09,33,12.80
2008,06,01,09,34,12.80
2008,06,01,09,35,12.80
2008,06,01,09,36,12.80
2008,06,01,09,37,12.80
2008,06,01,09,38,12.90
2008,06,01,09,39,12.90
2008,06,01,09,40,12.90
2008,06,01,09,41,12.90
2008,06,01,09,42,12.90
2008,06,01,09,43,12.90
2008,06,01,09,44,12.90
2008,06,01,09,45,12.90
2008,06,01,09,46,12.90
2008,06,01,09,47,12.90
2008,06,01,09,48,12.90
2008,06,01,09,49,12.90
2008,06,01,09,50,12.90
2008,06,01,09,51,12.90
2008,06,01,09,52,12.90
2008,06,01,09,53,12.90
2008,06,01,09,54,12.90
2008,06,01,09,55,12.90
2008,06,01,09,56,12.90
2008,06,01,09,57,12.90
2008,06,01,09,58,12.90
2008,06,01,09,59,12.80
2008,06,01,10,00,12.80
2008,06,01,10,01,12.80
2008,06,01,10,02,12.80
2008,06,01,10,03,12.80
2008,06,01,10,04,12.80
2008,06,01,10,05,12.80
2008,06,01,10,06,12.80
2008,06,01,10,07,12.80
2008,06,01,10,08,12.90
2008,06,01,10,09,12.90
2008,06,01,10,10,12.90
2008,06,01,10,11,12.90
2008,06,01,10,12,12.90
2008,06,01,10,13,13.00
2008,06,01,10,14,13.00
2008,06,01,10,15,13.10
2008,06,01,10,16,13.10
2008,06,01,10,17,13.10
2008,06,01,10,18,13.20
2008,06,01,10,19,13.20
2008,06,01,10,20,13.30
2008,06,01,10,21,13.30
2008,06,01,10,22,13.30
2008,06,01,10,23,13.30
2008,06,01,10,24,13.30
2008,06,01,10,25,13.30
2008,06,01,10,26,13.30
2008,06,01,10,27,13.30
2008,06,01,10,28,13.30
2008,06,01,10,29,13.30
2008,06,01,10,30,13.30
2008,06,01,10,31,13.30
2008,06,01,10,32,13.30
2008,06,01,10,33,13.30
2008,06,01,10,34,13.30
2008,06,01,10,35,13.30
2008,06,01,10,36,13.30
2008,06,01,10,37,13.30
2008,06,01,10,38,13.30
2008,06,01,10,39,13.30
2008,06,01,10,40,13.30
2008,06,01,10,41,13.30
2008,06,01,10,42,13.40
2008,06,01,10,43,13.40
2008,06,01,10,44,13.50
2008,06,01,10,45,13.60
2008,06,01,10,46,13.60
2008,06,01,10,47,13.70
2008,06,01,10,48,13.80
2008,06,01,10,49,13.80
2008,06,01,10,50,13.90
2008,06,01,10,51,13.90
2008,06,01,10,52,14.00
2008,06,01,10,53,14.00
2008,06,01,10,54,14.00
2008,06,01,10,55,14.10
2008,06,01,10,56,14.10
2008,06,01,10,57,14.00
2008,06,01,10,58,13.90
2008,06,01,10,59,13.90
2008,06,01,11,00,13.90
2008,06,01,11,01,13.90
2008,06,01,11,02,14.00
2008,06,01,11,03,14.00
2008,06,01,11,04,14.10
2008,06,01,11,05,14.10
2008,06,01,11,06,14.10
2008,06,01,11,07,14.10
2008,06,01,11,08,14.10
2008,06,01,11,09,14.10
2008,06,01,11,10,14.10
2008,06,01,11,11,14.10
2008,06,01,11,12,14.10
2008,06,01,11,13,14.10
2008,06,01,11,14,14.10
2008,06,01,11,15,14.10
2008,06,01,11,16,14.20
2008,06,01,11,17,14.20
2008,06,01,11,18,14.30
2008,06,01,11,19,14.30
2008,06,01,11,20,14.40
2008,06,01,11,21,14.30
2008,06,01,11,22,14.30
2008,06,01,11,23,14.20
2008,06,01,11,24,14.20
2008,06,01,11,25,14.10
2008,06,01,11,26,14.10
2008,06,01,11,27,14.00
2008,06,01,11,28,14.00
2008,06,01,11,29,14.00
2008,06,01,11,30,13.90
2008,06,01,11,31,13.90
2008,06,01,11,32,13.80
2008,06,01,11,33,13.80
2008,06,01,11,34,13.80
2008,06,01,11,35,13.80
2008,06,01,11,36,13.70
2008,06,01,11,37,13.70
2008,06,01,11,38,13.70
2008,06,01,11,39,13.80
2008,06,01,11,40,13.80
2008,06,01,11,41,13.80
2008,06,01,11,42,13.70
2008,06,01,11,43,13.70
2008,06,01,11,44,13.70
2008,06,01,11,45,13.80
2008,06,01,11,46,13.80
2008,06,01,11,47,13.90
2008,06,01,11,48,13.90
2008,06,01,11,49,13.90
2008,06,01,11,50,13.90
2008,06,01,11,51,13.90
2008,06,01,11,52,13.90
2008,06,01,11,53,13.90
2008,06,01,11,54,14.00
2008,06,01,11,55,13.90
2008,06,01,11,56,13.90
2008,06,01,11,57,14.00
2008,06,01,11,58,14.10
2008,06,01,11,59,14.20
2008,06,01,12,00,14.20
2008,06,01,12,01,14.20
2008,06,01,12,02,14.30
2008,06,01,12,03,14.40
2008,06,01,12,04,14.40
2008,06,01,12,05,14.30
2008,06,01,12,06,14.30
2008,06,01,12,07,14.30
2008,06,01,12,08,14.40
2008,06,01,12,09,14.40
2008,06,01,12,10,14.30
2008,06,01,12,11,14.30
2008,06,01,12,12,14.20
2008,06,01,12,13,14.10
2008,06,01,12,14,14.10
2008,06,01,12,15,14.10
2008,06,01,12,16,14.10
2008,06,01,12,17,14.20
2008,06,01,12,18,14.30
2008,06,01,12,19,14.30
2008,06,01,12,20,14.40
2008,06,01,12,21,14.30
2008,06,01,12,22,14.40
2008,06,01,12,23,14.40
2008,06,01,12,24,14.50
2008,06,01,12,25,14.50
2008,06,01,12,26,14.50
2008,06,01,12,27,14.50
2008,06,01,12,28,14.60
2008,06,01,12,29,14.50
2008,06,01,12,30,14.50
2008,06,01,12,31,14.60
2008,06,01,12,32,14.50
2008,06,01,12,33,14.50
2008,06,01,12,34,14.50
2008,06,01,12,35,14.50
2008,06,01,12,36,14.60
2008,06,01,12,37,14.70
2008,06,01,12,38,14.70
2008,06,01,12,39,14.70
2008,06,01,12,40,14.70
2008,06,01,12,41,14.70
2008,06,01,12,42,14.70
2008,06,01,12,43,14.60
2008,06,01,12,44,14.60
2008,06,01,12,45,14.60
2008,06,01,12,46,14.60
2008,06,01,12,47,14.60
2008,06,01,12,48,14.70
2008,06,01,12,49,14.60
2008,06,01,12,50,14.60
2008,06,01,12,51,14.60
2008,06,01,12,52,14.60
2008,06,01,12,53,14.60
2008,06,01,12,54,14.60
2008,06,01,12,55,14.70
2008,06,01,12,56,14.60
2008,06,01,12,57,14.60
2008,06,01,12,58,14.60
2008,06,01,12,59,14.60
2008,06,01,13,00,14.50
2008,06,01,13,01,14.40
2008,06,01,13,02,14.40
2008,06,01,13,03,14.30
2008,06,01,13,04,14.40
2008,06,01,13,05,14.40
2008,06,01,13,06,14.40
2008,06,01,13,07,14.30
2008,06,01,13,08,14.40
2008,06,01,13,09,14.50
2008,06,01,13,10,14.50
2008,06,01,13,11,14.50
2008,06,01,13,12,14.40
2008,06,01,13,13,14.30
2008,06,01,13,14,14.20
2008,06,01,13,15,14.10
2008,06,01,13,16,14.10
2008,06,01,13,17,14.10
2008,06,01,13,18,14.10
2008,06,01,13,19,14.20
2008,06,01,13,20,14.30
2008,06,01,13,21,14.30
2008,06,01,13,22,14.40
2008,06,01,13,23,14.50
2008,06,01,13,24,14.60
2008,06,01,13,25,14.50
2008,06,01,13,26,14.50
2008,06,01,13,27,14.50
2008,06,01,13,28,14.40
2008,06,01,13,29,14.30
2008,06,01,13,30,14.20
2008,06,01,13,31,14.20
2008,06,01,13,32,14.20
2008,06,01,13,33,14.20
2008,06,01,13,34,14.20
2008,06,01,13,35,14.20
2008,06,01,13,36,14.20
2008,06,01,13,37,14.20
2008,06,01,13,38,14.20
2008,06,01,13,39,14.20
2008,06,01,13,40,14.20
2008,06,01,13,41,14.10
2008,06,01,13,42,14.00
2008,06,01,13,43,14.00
2008,06,01,13,44,13.90
2008,06,01,13,45,13.90
2008,06,01,13,46,13.90
2008,06,01,13,47,14.00
2008,06,01,13,48,14.10
2008,06,01,13,49,14.00
2008,06,01,13,50,14.00
2008,06,01,13,51,13.90
2008,06,01,13,52,13.90
2008,06,01,13,53,13.90
2008,06,01,13,54,14.00
2008,06,01,13,55,14.00
2008,06,01,13,56,14.00
2008,06,01,13,57,14.10
2008,06,01,13,58,14.10
2008,06,01,13,59,14.20
2008,06,01,14,00,14.20
2008,06,01,14,01,14.20
2008,06,01,14,02,14.20
2008,06,01,14,03,14.20
2008,06,01,14,04,14.20
2008,06,01,14,05,14.20
2008,06,01,14,06,14.20
2008,06,01,14,07,14.20
2008,06,01,14,08,14.10
2008,06,01,14,09,14.10
2008,06,01,14,10,14.10
2008,06,01,14,11,14.10
2008,06,01,14,12,14.10
2008,06,01,14,13,14.10
2008,06,01,14,14,14.10
2008,06,01,14,15,14.20
2008,06,01,14,16,14.20
2008,06,01,14,17,14.20
2008,06,01,14,18,14.30
2008,06,01,14,19,14.30
2008,06,01,14,20,14.30
2008,06,01,14,21,14.40
2008,06,01,14,22,14.50
2008,06,01,14,23,14.60
2008,06,01,14,24,14.70
2008,06,01,14,25,14.90
2008,06,01,14,26,14.90
2008,06,01,14,27,14.90
2008,06,01,14,28,15.00
2008,06,01,14,29,15.00
2008,06,01,14,30,15.00
2008,06,01,14,31,15.10
2008,06,01,14,32,15.10
2008,06,01,14,33,15.20
2008,06,01,14,34,15.10
2008,06,01,14,35,15.10
2008,06,01,14,36,15.10
2008,06,01,14,37,15.10
2008,06,01,14,38,15.10
2008,06,01,14,39,15.10
2008,06,01,14,40,15.10
2008,06,01,14,41,15.20
2008,06,01,14,42,15.20
2008,06,01,14,43,15.20
2008,06,01,14,44,15.00
2008,06,01,14,45,15.00
2008,06,01,14,46,15.10
2008,06,01,14,47,15.20
2008,06,01,14,48,15.30
2008,06,01,14,49,15.20
2008,06,01,14,50,15.20
2008,06,01,14,51,15.30
2008,06,01,14,52,15.30
2008,06,01,14,53,15.30
2008,06,01,14,54,15.20
2008,06,01,14,55,15.20
2008,06,01,14,56,15.10
2008,06,01,14,57,15.10
2008,06,01,14,58,15.00
2008,06,01,14,59,15.00
2008,06,01,15,00,15.00
2008,06,01,15,01,15.00
2008,06,01,15,02,15.00
2008,06,01,15,03,15.00
2008,06,01,15,04,15.00
2008,06,01,15,05,15.00
2008,06,01,15,06,15.00
2008,06,01,15,07,15.00
2008,06,01,15,08,15.00
2008,06,01,15,09,15.00
2008,06,01,15,10,15.00
2008,06,01,15,11,15.00
2008,06,01,15,12,15.00
2008,06,01,15,13,15.00
2008,06,01,15,14,14.90
2008,06,01,15,15,14.90
2008,06,01,15,16,14.80
2008,06,01,15,17,14.70
2008,06,01,15,18,14.70
2008,06,01,15,19,14.70
2008,06,01,15,20,14.70
2008,06,01,15,21,14.70
2008,06,01,15,22,14.80
2008,06,01,15,23,14.90
2008,06,01,15,24,15.00
2008,06,01,15,25,15.00
2008,06,01,15,26,15.00
2008,06,01,15,27,15.00
2008,06,01,15,28,14.90
2008,06,01,15,29,14.70
2008,06,01,15,30,14.60
2008,06,01,15,31,14.60
2008,06,01,15,32,14.70
2008,06,01,15,33,14.80
2008,06,01,15,34,14.80
2008,06,01,15,35,14.70
2008,06,01,15,36,14.70
2008,06,01,15,37,14.80
2008,06,01,15,38,14.70
2008,06,01,15,39,14.70
2008,06,01,15,40,14.70
2008,06,01,15,41,14.80
2008,06,01,15,42,14.80
2008,06,01,15,43,14.80
2008,06,01,15,44,14.90
2008,06,01,15,45,14.80
2008,06,01,15,46,14.80
2008,06,01,15,47,14.80
2008,06,01,15,48,14.60
2008,06,01,15,49,14.60
2008,06,01,15,50,14.50
2008,06,01,15,51,14.60
2008,06,01,15,52,14.60
2008,06,01,15,53,14.60
2008,06,01,15,54,14.60
2008,06,01,15,55,14.60
2008,06,01,15,56,14.60
2008,06,01,15,57,14.50
2008,06,01,15,58,14.50
2008,06,01,15,59,14.50
2008,06,01,16,00,14.40
2008,06,01,16,01,14.30
2008,06,01,16,02,14.20
2008,06,01,16,03,14.30
2008,06,01,16,04,14.30
2008,06,01,16,05,14.30
2008,06,01,16,06,14.30
2008,06,01,16,07,14.30
2008,06,01,16,08,14.40
2008,06,01,16,09,14.40
2008,06,01,16,10,14.30
2008,06,01,16,11,14.20
2008,06,01,16,12,14.10
2008,06,01,16,13,14.00
2008,06,01,16,14,13.90
2008,06,01,16,15,13.80
2008,06,01,16,16,13.80
2008,06,01,16,17,13.80
2008,06,01,16,18,13.80
2008,06,01,16,19,13.70
2008,06,01,16,20,13.70
2008,06,01,16,21,13.70
2008,06,01,16,22,13.70
2008,06,01,16,23,13.80
2008,06,01,16,24,13.80
2008,06,01,16,25,13.80
2008,06,01,16,26,13.80
2008,06,01,16,27,13.70
2008,06,01,16,28,13.70
2008,06,01,16,29,13.70
2008,06,01,16,30,13.70
2008,06,01,16,31,13.70
2008,06,01,16,32,13.70
2008,06,01,16,33,13.60
2008,06,01,16,34,13.60
2008,06,01,16,35,13.60
2008,06,01,16,36,13.60
2008,06,01,16,37,13.70
2008,06,01,16,38,13.70
2008,06,01,16,39,13.70
2008,06,01,16,40,13.80
2008,06,01,16,41,13.90
2008,06,01,16,42,13.90
2008,06,01,16,43,14.00
2008,06,01,16,44,14.00
2008,06,01,16,45,13.90
2008,06,01,16,46,13.90
2008,06,01,16,47,13.90
2008,06,01,16,48,13.80
2008,06,01,16,49,13.80
2008,06,01,16,50,13.70
2008,06,01,16,51,13.70
2008,06,01,16,52,13.70
2008,06,01,16,53,13.80
2008,06,01,16,54,13.80
2008,06,01,16,55,13.80
2008,06,01,16,56,13.80
2008,06,01,16,57,13.80
2008,06,01,16,58,13.90
2008,06,01,16,59,13.90
2008,06,01,17,00,14.00
2008,06,01,17,01,14.00
2008,06,01,17,02,14.10
2008,06,01,17,03,14.20
2008,06,01,17,04,14.20
2008,06,01,17,05,14.20
2008,06,01,17,06,14.20
2008,06,01,17,07,14.20
2008,06,01,17,08,14.20
2008,06,01,17,09,14.20
2008,06,01,17,10,14.20
2008,06,01,17,11,14.20
2008,06,01,17,12,14.30
2008,06,01,17,13,14.30
2008,06,01,17,14,14.20
2008,06,01,17,15,14.20
2008,06,01,17,16,14.20
2008,06,01,17,17,14.20
2008,06,01,17,18,14.20
2008,06,01,17,19,14.20
2008,06,01,17,20,14.20
2008,06,01,17,21,14.20